Regional Weather Roundup
Issued by NWS Wakefield, VA

Home | Current Version | Previous Version | Graphics & Text | Print | Product List | Glossary On
Versions: 1 2 3 4 5 6 7 8 9 10 11 12 13 14 15 16 17 18
000
ASUS41 KAKQ 291415
RWRAKQ

REGIONAL WEATHER ROUNDUP
NATIONAL WEATHER SERVICE WAKEFIELD VA
1000 AM EDT WED JUL 29 2015

Note: "fair" indicates few or no clouds below 12,000 feet with no
significant weather and/or obstructions to visibility. * = Denotes
station may not report precipitation (e.g., rain,snow,etc.),
thunder or fog.

VAZ042-051-052>054-056-291500-
NORTHERN VIRGINIA

CITY           SKY/WX    TMP DP  RH WIND       PRES   REMARKS
WASH NATIONAL  PTSUNNY   84  75  74 S9        30.01F
DULLES         MOSUNNY   79  74  84 S6        30.01F
FORT BELVOIR   PTSUNNY   80  78  92 VRB2      30.01F
QUANTICO       PTSUNNY   80  74  81 S7        30.02F
FREDERICKSBRG* CLOUDY    77  77 100 SE3       30.01F
STAFFORD*      CLOUDY    78  73  85 S3        30.05F HAZE
WARRENTON      CLOUDY    79  77  95 S3        30.02F
CULPEPER*      CLOUDY    74  73  96 SW3       30.03F
MANASSAS*      CLOUDY    77  75  94 CALM      30.01F
LEESBURG*      CLOUDY    79  77  94 SW5       30.03S
WINCHESTER     CLOUDY    77  73  88 S5        30.03S
FRONT ROYAL*   FAIR      73  72  94 CALM      30.02S
LURAY*         FAIR      81  75  83 W3        30.03F
$$

VAZ048-049-060>072-079>083-291500-
CENTRAL AND SOUTH CENTRAL VIRGINIA

CITY           SKY/WX    TMP DP  RH WIND       PRES   REMARKS
RICHMOND       CLOUDY    78  72  81 S6        30.03S
CHESTERFIELD*  CLOUDY    77  64  65 SW6       30.05S
PETERSBURG*    RAIN      75  75 100 CALM      30.05S
HANOVER        PTSUNNY   79  73  82 VRB6      30.05R
TAPPAHANNOCK*  MOSUNNY   82  74  75 CALM      30.03F
QUINTON*       CLOUDY    79  73  83 CALM      30.04R
CHARLOTTSVILLE CLOUDY    77  73  87 SW5       30.03F
GORDONSVILLE*  CLOUDY    77  73  88 S3        30.02F
ORANGE*        CLOUDY    79  73  83 S3        30.04F
LOUISA*        CLOUDY    79  73  83 S3        30.02F
BUMPASS*       PTSUNNY   79  74  85 SW6       30.03F
FARMVILLE*     CLOUDY    80  77  91 SW7       30.03S
CREWE*         CLOUDY   N/A N/A N/A S3        30.04S
FORT PICKETT*  CLOUDY    76  73  92 S10       30.05S
CHASE CITY*    CLOUDY    80  76  87 S3        30.05S
CLARKSVILLE*   CLOUDY    77  72  83 S5        30.04S
SOUTH HILL*    CLOUDY    73  72  94 S5        30.10S
LAWRENCEVILLE* CLOUDY    75  73  94 SW5       30.05R
EMPORIA*       PTSUNNY   79  72  78 S3        30.05S
$$

VAZ088>098-291500-
SOUTHEAST VIRGINIA

CITY           SKY/WX    TMP DP  RH WIND       PRES   REMARKS
NORFOLK        SUNNY     83  69  62 SW7       30.04R
VIRGINIA BEACH MOSUNNY   86  72  62 W5        30.03R
NORFOLK NAVAL  MOSUNNY   83  70  64 W6        30.05R
WEST POINT*    PTSUNNY   83  71  66 S7        30.05S
SALUDA*        CLOUDY    79  73  83 S5        30.03F
NEWPORT NEWS   PTSUNNY   83  71  67 S9        30.04S
LANGLEY AFB    MOSUNNY   82  71  68 SW7       30.04R
FORT EUSTIS    MOSUNNY   82  74  77 VRB2      30.02S
WILLIAMSBURG*  SUNNY     84  73  70 SW7       30.05S
HR EXEC AP*    FAIR      84  72  65 W5        30.05S
FRANKLIN*      PTSUNNY   83  72  69 SW6       30.04S
WAKEFIELD      MOSUNNY   82  72  71 SW6       30.04S
$$

VAZ020-022-025-037-045-291500-
WEST CENTRAL AND SOUTHWEST VIRGINIA

CITY           SKY/WX    TMP DP  RH WIND       PRES   REMARKS
STAUNTON*      CLOUDY    78  73  84 SE3       30.07F
WAYNESBORO*    CLOUDY    74  72  91 CALM      30.07S
HOT SPRINGS VA PTSUNNY   71  70  96 CALM      30.17S FOG
LYNCHBURG      CLOUDY    74  72  93 S5        30.06F FOG
DANVILLE       CLOUDY    78  73  84 S3        30.05S
SOUTH BOSTON*  CLOUDY    76  73  92 CALM      30.05R
MARTINSVILLE   CLOUDY    77  77  99 CALM      30.08S
ROANOKE        CLOUDY    77  71  82 CALM      30.07F
BLACKSBURG     CLOUDY    73  72  95 CALM      30.14S FOG
DUBLIN*          N/A     72  72 100 CALM      30.12F FOG
MARION*        CLOUDY    71  68  92 E5        30.16S FOG
HILLSVILLE*    CLOUDY    71  69  94 CALM      30.13S
RICHLANDS*     CLOUDY    71  69  95 NW3       30.14R
WISE*          MOSUNNY   79  72  78 SW3       30.15R
ABINGDON*      PTSUNNY   79  71  77 W5        30.11R
$$

MDZ021>025-VAZ099-100-291500-
SOUTHERN MARYLAND AND THE DELMARVA PENINSULA

CITY           SKY/WX    TMP DP  RH WIND       PRES   REMARKS
PATUXENT RIVER PTSUNNY   80  72  76 SW10      30.02S
BAY BRIDGE APT   N/A     81  73  78 W6        30.02S
LEONARDTOWN    PTSUNNY   82  72  69 S6        30.03F
DOVER          MOSUNNY   83  77  80 S7        30.01S
GEORGETOWN     MOSUNNY   84  75  74 SW7       30.03S
EASTON         MOSUNNY   84  75  74 S6        30.05S
CAMBRIDGE      MOSUNNY   82  70  65 SW7       30.02S
SALISBURY      MOSUNNY   83  75  77 SW6       30.02F
OCEAN CITY     MOSUNNY   82  74  76 SW6       30.03S
WALLOPS ISLAND PTSUNNY   82  76  81 W7        30.04S
ACCOMACK*      MOSUNNY   82  75  78 SW5       30.04S
$$

NCZ012>017-030>032-291500-
NORTH CENTRAL AND EASTERN NORTH CAROLINA

CITY           SKY/WX    TMP DP  RH WIND       PRES   REMARKS
ROANOKE RAPIDS FAIR      81  72  74 SW6       30.04S
RALEIGH        PTSUNNY   81  72  74 S6        30.04S
ELIZABETH CITY SUNNY     84  72  67 SE5       30.04R
AHOSKIE*       PTSUNNY   80  71  72 S3        30.04S
EDENTON*         N/A     82  71  68 SE3       30.04R
CURRITUCK*     MOSUNNY   84  69  60 S3        30.04S
KILL DEVIL HLS SUNNY     86  71  61 E7        30.03R
MANTEO         SUNNY     83  70  63 SE7       30.04R
CAPE HATTERAS  SUNNY     84  69  60 E10       30.03R
TARBORO*         N/A     83  72  68 CALM      30.04S
GOLDSBORO      SUNNY     83  72  69 VRB3      30.02R
WASHINGTON     SUNNY     82  73  72 CALM      30.03S
GREENVILLE     SUNNY     82  72  69 SE3       30.05R
NEW BERN       SUNNY     84  71  65 E8        30.03R
WILMINGTON     MOSUNNY   83  72  69 E9        30.01R
$$

VAZ048-291500-
ELSEWHERE

CITY           SKY/WX    TMP DP  RH WIND       PRES   REMARKS
HARRISBURG PA  PTSUNNY   83  72  69 S5        30.01S
BALTIMORE      PTSUNNY   83  72  69 S6        30.01F
ANNAPOLIS      PTSUNNY   83  72  69 CALM      30.01S
ANDREWS AFB    MOSUNNY   82  74  78 S6        30.01F
PHILADELPHIA   PTSUNNY   84  73  69 SW8       30.01S
HENDERSON NC   CLOUDY    76  69  80 CALM      30.06R
GREENSBORO     CLOUDY    77  72  84 W7        30.06R
ROCKY MOUNT    PTSUNNY   83  72  69 VRB5      30.04R
$$

VAZ100-291500-
MARINE

STATION/POSITION TIME  TEMP    WIND        PRES    WAVE   SWELL
                       AIR SEA DIR/SP/G            HT/PER HT/PER
                 (UTC) (F)     (DEG/KT/KT) (MB)    (FT/S) (FT/S)
BRANDYWINE LGT   1300   76 74  240/  7/  8 1017.0R
CAPE MAY NJ      1300   77 78  230/  5/  6 1016.5R
LEWES DE         1300   81 74  230/  4/  6 1016.6R
15NM E FENWICK I 1350   78 79  230/  6/  8 1017.0R   2/11   2/11
OCEAN-CITY-INLET 1300   80 74  240/  4/  5 1016.0R
WACHAPREAGUE VA  1300   81 82  230/  5/  7 1017.2R
GOOSES REEF MD   1400   81 82  230/  6/  8 1017.4F
COVE POINT MD    1300   78     240/  7/ 10 1017.2R
SOLOMONS ISLAND  1300      82                N/A
BISHOPS HEAD MD  1300   80 82  230/ 10/ 11 1016.1R
POTOMAC MD       1400   80 83  250/ 10/ 12 1015.6F   1/ 2
CAMBRIDGE MD     1300   81 83  190/  5/  7 1015.8R
LEWISETTA VA     1300   78 83  230/  8/ 10 1016.5R
RAPPAHANNOCK LGT 1300          200/  8/  9 1017.5R
STINGRAY PT      1400   81 82  230/  6/  8 1017.0F   1
YORK RVR RNG VA  1300   81     230/  8/  9 1016.5R
YORKTOWN VA      1300   80 83  210/  6/  9 1016.7R
JAMESTOWN VA     1400   80 84  220/  4/  6   N/A
DOMINION TERM VA 1300   79     230/  5/  6 1016.8R
KIPTOPEKE VA     1300      81  210/  5/  5   N/A
CHES BAY BRIDGE  1300   80 79  200/  3/  5 1016.4R
CAPE HENRY VA    1300   80     190/  5/  7   N/A
CHESAPEAKE LGHT  1300   80     210/  8/  9 1017.8R
WILLOUBY STN VA  1300   80     230/  8/  9 1017.8R
CAPE HENRY BUOY  1328      81                N/A     2/10
1ST LANDING BUOY 1400      81              1016.9R   1/ 4
CAPE CHARLES BUO 1326      80                N/A     2/ 9   2/ 9
OFFSHORE WE BUOY 1311      81                N/A     3/11   2/11
64NM E OF VA BCH 1350   81 81  160/  4/  4 1017.3R   2/11   2/11
DUCK PIER NC     1300   82 64  120/  4/  4 1016.1R
44100 DUCK FRF   1324      81                N/A     2/ 9
44056 DUCK FRF   1311      79                N/A     2/10
OREGON INLET NC  1300   81 82   90/  6/  8 1016.8R
HATTERAS NC      1300   82 82  100/  6/  9 1016.0R
CAPE LOOKOUT NC  1400   81      70/ 14/ 16 1015.9R
$$



USA.gov is the U.S. government's official web portal to all federal, state and local government web resources and services.